Find Starlink 35078

NORAD ID: 65523 Int'l Des: 2025-200 Owner: SPXS Country: US Constellation: starlink operational
LEOCIRCULARRETROGRADESSO

当前视图

正在加载3D地球...

About Starlink 35078

Starlink 35078 (NORAD 65523) is a starlink constellation satellite (v2 mini) launched Sep 6, 2025 by SPXS of US. It operates in LEO, CIRCULAR, RETROGRADE, SSO orbit with a mass of 575.00 kg.

即将过境

Passes for default location (London). Set your location on the main map for personalized predictions.

高度历史

Loading altitude history...

两行轨道根数

1 65523U 25200D 26262.18116519 .00015230 00000-0 47288-3 0 9993
2 65523 97.2853 328.6484 0001017 104.6428 255.4928 15.33462027 58445
Epoch: Sep 19, 2026 • Age: 39 hours

当前状态

高度 468.1 km
远地点 / 近地点 N/A
速度 7.63 km/s
星下点 3.41°N, 37.4°E
发射日期 Sep 6, 2025
运行时间 1 year
类型 internet

技术详情

分类 Payload
质量 575.00 kg
干质量 530.00 kg
长度 0.30 m
跨度 29.00 m
形状 ? Box + pan
制造商 SPXS
平台类型 Starlink V2MO
阶段状态 In Orbit
所有者/国家 SPXS/US

Most Searched